DW7589 Weather Reports


time (UTC)temp
F
wind
direction
speed
knots
gust
knots
rain 1hr
in
rain 24hr
in
rain mn
in
humidity
%
barometer
mb
20260904181738 95 166 2.6 7.0 0.00 0.00 0.00 47 1013.8
20260904181240 94 158 3.5 7.0 0.00 0.00 0.00 46 1013.8
20260904180740 94 153 3.5 8.7 0.00 0.00 0.00 43 1013.9
20260904180239 95 160 3.5 8.7 0.00 0.00 0.00 42 1013.9
20260904175738 95 160 2.6 7.0 0.00 0.00 0.00 43 1014.1
20260904175238 95 156 2.6 7.0 0.00 0.00 0.00 43 1014.1
20260904174739 95 167 1.7 6.1 0.00 0.00 0.00 44 1014.1
20260904174239 95 170 1.7 4.3 0.00 0.00 0.00 45 1014.1
20260904173739 94 173 2.6 5.2 0.00 0.00 0.00 44 1014.2
20260904173239 94 185 2.6 5.2 0.00 0.00 0.00 44 1014.2
20260904172739 93 169 2.6 7.0 0.00 0.00 0.00 48 1014.2
20260904172238 93 164 3.5 7.0 0.00 0.00 0.00 46 1014.3
20260904171740 93 161 3.5 7.8 0.00 0.00 0.00 49 1014.3
20260904171239 93 156 3.5 7.8 0.00 0.00 0.00 49 1014.3
20260904170739 93 158 3.5 7.8 0.00 0.00 0.00 49 1014.5
20260904170239 93 157 2.6 7.8 0.00 0.00 0.00 50 1014.5
20260904165740 93 169 1.7 7.0 0.00 0.00 0.00 49 1014.5
20260904165240 92 183 1.7 7.0 0.00 0.00 0.00 49 1014.5
20260904164740 92 191 1.7 6.1 0.00 0.00 0.00 47 1014.6
20260904164239 92 213 2.6 7.0 0.00 0.00 0.00 45 1014.6
20260904163739 92 222 2.6 8.7 0.00 0.00 0.00 51 1014.6
20260904163239 92 210 2.6 8.7 0.00 0.00 0.00 50 1014.6
20260904162739 92 206 1.7 6.1 0.00 0.00 0.00 52 1014.6
20260904161739 91 179 1.7 5.2 0.00 0.00 0.00 54 1014.6
20260904160740 90 190 2.6 5.2 0.00 0.00 0.00 58 1014.6
20260904155739 90 213 2.6 8.7 0.00 0.00 0.00 56 1014.6
20260904155239 90 204 2.6 8.7 0.00 0.00 0.00 58 1014.6
20260904154738 89 170 1.7 5.2 0.00 0.00 0.00 57 1014.6
20260904154239 89 172 2.6 4.3 0.00 0.00 0.00 58 1014.6
20260904153739 89 166 2.6 4.3 0.00 0.00 0.00 58 1014.6
20260904153240 89 167 2.6 4.3 0.00 0.00 0.00 59 1014.6
20260904152739 89 170 1.7 4.3 0.00 0.00 0.00 60 1014.5
20260904152239 88 179 1.7 5.2 0.00 0.00 0.00 61 1014.6
20260904151739 87 188 2.6 7.8 0.00 0.00 0.00 63 1014.6
20260904151238 87 184 1.7 7.8 0.00 0.00 0.00 63 1014.6
20260904150238 87 182 2.6 7.0 0.00 0.00 0.00 66 1014.6
20260904145238 86 194 1.7 6.1 0.00 0.00 0.00 70 1014.5
20260904144739 86 189 1.7 6.1 0.00 0.00 0.00 72 1014.5
20260904144239 85 189 1.7 7.0 0.00 0.00 0.00 74 1014.4
20260904143739 85 193 1.7 7.0 0.00 0.00 0.00 75 1014.4
20260904143240 84 183 1.7 4.3 0.00 0.00 0.00 77 1014.4
20260904142739 84 185 1.7 5.2 0.00 0.00 0.00 77 1014.4
20260904142239 84 177 1.7 5.2 0.00 0.00 0.00 77 1014.5
20260904141240 83 172 1.7 4.3 0.00 0.00 0.00 79 1014.5
20260904140739 83 170 1.7 6.1 0.00 0.00 0.00 81 1014.5
20260904140240 82 161 1.7 6.1 0.00 0.00 0.00 82 1014.5
20260904135739 82 155 1.7 6.1 0.00 0.00 0.00 83 1014.4
20260904135239 82 150 1.7 6.1 0.00 0.00 0.00 85 1014.5
20260904133739 81 151 1.7 4.3 0.00 0.00 0.00 87 1014.5
20260904133239 80 146 1.7 4.3 0.00 0.00 0.00 88 1014.4
20260904132740 80 149 0.9 3.5 0.00 0.00 0.00 89 1014.3
20260904131739 79 152 0.9 4.3 0.00 0.00 0.00 90 1014.2
20260904130739 79 165 0.9 1.7 0.00 0.00 0.00 91 1014.0
20260904130238 79 155 0.9 2.6 0.00 0.00 0.00 91 1014.0
20260904125738 79 149 0.9 2.6 0.00 0.00 0.00 91 1014.0
20260904125239 78 147 0.9 2.6 0.00 0.00 0.00 91 1013.9
20260904124739 78 152 0.9 2.6 0.00 0.00 0.00 91 1013.9
20260904124239 78 0 0.0 1.7 0.00 0.00 0.00 92 1013.8
20260904123739 78 0 0.0 0.9 0.00 0.00 0.00 92 1013.7
20260904123239 78 0 0.0 1.7 0.00 0.00 0.00 93 1013.7
20260904122738 78 0 0.0 1.7 0.00 0.00 0.00 93 1013.6
20260904122239 78 151 0.9 1.7 0.00 0.00 0.00 93 1013.6
20260904121739 78 157 0.9 1.7 0.00 0.00 0.00 93 1013.6
20260904115739 78 155 0.9 2.6 0.00 0.00 0.00 93 1013.3
20260904115239 78 154 0.9 1.7 0.00 0.00 0.00 92 1013.3
20260904114740 78 154 0.9 1.7 0.00 0.00 0.00 92 1013.3
20260904114240 78 154 0.9 1.7 0.00 0.00 0.00 92 1013.3
20260904113740 78 0 0.0 1.7 0.00 0.00 0.00 92 1013.2
20260904112739 78 149 0.9 2.6 0.00 0.00 0.00 92 1013.2
20260904112239 78 155 0.9 3.5 0.00 0.00 0.00 91 1013.1
20260904111739 78 162 0.9 3.5 0.00 0.00 0.00 91 1013.0
20260904111239 78 0 0.0 1.7 0.00 0.00 0.00 91 1013.0
20260904110239 78 162 0.9 1.7 0.00 0.00 0.00 91 1013.0
20260904105739 78 162 0.9 1.7 0.00 0.00 0.00 91 1013.1
20260904105239 78 163 0.9 1.7 0.00 0.00 0.00 91 1013.0
20260904104740 78 163 0.9 1.7 0.00 0.00 0.00 91 1012.8
20260904104240 78 0 0.0 1.7 0.00 0.00 0.00 91 1012.7
20260904103739 78 0 0.0 1.7 0.00 0.00 0.00 91 1012.7
20260904103239 78 0 0.0 1.7 0.00 0.00 0.00 91 1012.8
20260904102740 78 0 0.0 1.7 0.00 0.00 0.00 91 1012.8
20260904102239 78 0 0.0 1.7 0.00 0.00 0.00 91 1012.8
20260904101739 78 0 0.0 1.7 0.00 0.00 0.00 91 1012.9
20260904101239 78 147 0.9 1.7 0.00 0.00 0.00 91 1012.9
20260904100739 78 147 0.9 1.7 0.00 0.00 0.00 91 1012.8
20260904100239 78 147 0.9 1.7 0.00 0.00 0.00 91 1012.8
20260904095740 78 150 0.9 2.6 0.00 0.00 0.00 91 1012.8
20260904095239 78 152 0.9 2.6 0.00 0.00 0.00 91 1012.8
20260904094739 78 0 0.0 0.9 0.00 0.00 0.00 91 1012.8
20260904094239 78 0 0.0 0.9 0.00 0.00 0.00 91 1012.7
20260904093739 78 141 0.9 1.7 0.00 0.00 0.00 91 1012.6
20260904093239 78 142 1.7 2.6 0.00 0.00 0.00 90 1012.6
20260904092740 78 149 1.7 3.5 0.00 0.00 0.00 90 1012.5
20260904092240 78 163 0.9 3.5 0.00 0.00 0.00 90 1012.5
20260904091739 78 182 0.9 1.7 0.00 0.00 0.00 90 1012.4
20260904091240 78 181 0.9 2.6 0.00 0.00 0.00 89 1012.4
20260904090739 78 177 0.9 2.6 0.00 0.00 0.00 89 1012.6
20260904090240 78 0 0.0 1.7 0.00 0.00 0.00 89 1012.7
20260904085740 78 0 0.0 1.7 0.00 0.00 0.00 89 1012.7
20260904085239 78 0 0.0 1.7 0.00 0.00 0.00 89 1012.9
20260904084739 78 0 0.0 0.9 0.00 0.00 0.00 89 1012.9
20260904083740 78 0 0.0 1.7 0.00 0.00 0.00 89 1012.8
20260904082739 78 182 0.9 1.7 0.00 0.00 0.00 89 1012.7
20260904082239 78 159 0.9 1.7 0.00 0.00 0.00 90 1012.7
20260904081739 78 148 0.9 2.6 0.00 0.00 0.00 90 1012.8
20260904081239 78 143 0.9 2.6 0.00 0.00 0.00 89 1012.8
20260904080241 78 161 1.7 3.5 0.00 0.00 0.00 89 1012.7
20260904075739 78 158 1.7 3.5 0.00 0.00 0.00 89 1012.6
20260904075239 78 157 1.7 3.5 0.00 0.00 0.00 89 1012.7
20260904074739 78 162 0.9 4.3 0.00 0.00 0.00 89 1012.7
20260904073740 78 159 0.9 4.3 0.00 0.00 0.00 89 1012.8
20260904073239 78 163 1.7 4.3 0.00 0.00 0.00 89 1012.8
20260904072739 78 162 1.7 3.5 0.00 0.00 0.00 89 1012.8
20260904072240 78 159 0.9 3.5 0.00 0.00 0.00 89 1012.8
20260904071739 78 156 1.7 4.3 0.00 0.00 0.00 89 1012.9
20260904070240 78 157 1.7 5.2 0.00 0.00 0.00 89 1012.8
20260904065740 78 156 1.7 3.5 0.00 0.00 0.00 89 1012.8
20260904065240 78 157 1.7 4.3 0.00 0.00 0.00 89 1012.8
20260904064739 78 159 1.7 4.3 0.00 0.00 0.00 88 1012.7
20260904064240 78 160 1.7 4.3 0.00 0.00 0.00 88 1012.7
20260904063739 78 159 1.7 4.3 0.00 0.00 0.00 88 1012.7
20260904063240 78 152 1.7 3.5 0.00 0.00 0.00 88 1012.7
20260904062739 78 147 1.7 3.5 0.00 0.00 0.00 87 1012.8
20260904062240 79 148 1.7 4.3 0.00 0.00 0.00 87 1012.8
20260904061740 79 153 1.7 4.3 0.00 0.00 0.00 86 1012.8
20260904061239 79 158 1.7 4.3 0.00 0.00 0.00 86 1012.8
20260904060739 79 158 1.7 4.3 0.00 0.00 0.00 86 1012.9
20260904060241 79 154 1.7 4.3 0.00 0.00 0.00 86 1013.0
20260904055740 79 151 2.6 5.2 0.00 0.00 0.00 85 1012.9
20260904055239 79 154 2.6 5.2 0.00 0.00 0.00 85 1013.0
20260904054239 79 153 2.6 5.2 0.00 0.00 0.00 85 1012.8
20260904053740 79 149 2.6 4.3 0.00 0.00 0.00 85 1013.0
20260904053240 79 148 1.7 4.3 0.00 0.00 0.00 85 1013.0
20260904052240 79 151 1.7 4.3 0.00 0.00 0.00 85 1013.0
20260904051739 79 150 1.7 4.3 0.00 0.00 0.00 85 1013.0
20260904051239 79 149 2.6 5.2 0.00 0.00 0.00 85 1013.0
20260904050739 79 151 2.6 5.2 0.00 0.00 0.00 85 1012.9
20260904050240 79 153 2.6 5.2 0.00 0.00 0.00 85 1012.8
20260904045741 79 155 1.7 4.3 0.00 0.00 0.00 84 1012.9
20260904045239 79 148 2.6 4.3 0.00 0.00 0.00 84 1013.0
20260904044739 79 143 2.6 3.5 0.00 0.00 0.00 85 1013.0
20260904044240 79 146 2.6 4.3 0.00 0.00 0.00 85 1013.0
20260904043740 79 147 2.6 4.3 0.00 0.00 0.00 85 1013.0
20260904043239 79 149 1.7 4.3 0.00 0.00 0.00 85 1012.8
20260904042739 79 149 1.7 4.3 0.00 0.00 0.00 84 1012.8
20260904041740 80 147 2.6 4.3 0.00 0.00 0.00 84 1012.9
20260904041239 80 146 2.6 4.3 0.00 0.00 0.00 84 1012.9
20260904040739 80 144 2.6 4.3 0.00 0.00 0.00 83 1012.9
20260904040239 80 141 2.6 6.1 0.00 0.00 0.00 83 1012.9
20260904035739 80 144 2.6 6.1 0.00 0.00 0.00 84 1012.9
20260904035240 80 145 2.6 5.2 0.00 0.00 0.00 84 1012.9
20260904034740 80 143 2.6 4.3 0.00 0.00 0.00 84 1012.9
20260904033740 80 140 2.6 4.3 0.00 0.00 0.00 84 1012.9
20260904033240 80 140 2.6 4.3 0.00 0.00 0.00 84 1012.8
20260904032739 80 141 2.6 4.3 0.00 0.00 0.00 84 1012.9
20260904032239 80 142 2.6 5.2 0.00 0.00 0.00 85 1012.8
20260904031740 80 142 2.6 5.2 0.00 0.00 0.00 85 1012.7
20260904031240 80 141 2.6 4.3 0.00 0.00 0.00 85 1012.8
20260904030740 80 142 2.6 4.3 0.00 0.00 0.00 84 1012.8
20260904025740 80 144 1.7 5.2 0.00 0.00 0.00 84 1012.6
20260904025239 80 139 1.7 4.3 0.00 0.00 0.00 84 1012.5
20260904024739 80 140 1.7 4.3 0.00 0.00 0.00 84 1012.4
20260904024240 81 145 1.7 4.3 0.00 0.00 0.00 83 1012.3
20260904023740 81 148 1.7 3.5 0.00 0.00 0.00 83 1012.3
20260904022740 81 152 1.7 5.2 0.00 0.00 0.00 83 1012.1
20260904022240 81 150 2.6 4.3 0.00 0.00 0.00 83 1012.1
20260904021740 81 145 2.6 4.3 0.00 0.00 0.00 83 1012.0
20260904021239 81 139 1.7 4.3 0.00 0.00 0.00 83 1012.0
20260904020740 81 137 2.6 4.3 0.00 0.00 0.00 83 1012.0
20260904015740 81 142 2.6 5.2 0.00 0.00 0.00 82 1011.7
20260904015240 81 141 2.6 6.1 0.00 0.00 0.00 82 1011.6
20260904014739 81 140 2.6 6.1 0.00 0.00 0.00 81 1011.5
20260904014239 81 136 2.6 4.3 0.00 0.00 0.00 81 1011.5
20260904013740 82 137 2.6 4.3 0.00 0.00 0.00 80 1011.5
20260904013240 82 144 2.6 5.2 0.00 0.00 0.00 80 1011.4
20260904012739 82 147 2.6 5.2 0.00 0.00 0.00 80 1011.4
20260904012239 82 149 2.6 4.3 0.00 0.00 0.00 80 1011.1
20260904011740 82 149 2.6 4.3 0.00 0.00 0.00 80 1011.1
20260904011241 82 148 2.6 5.2 0.00 0.00 0.00 79 1011.1
20260904010739 82 150 2.6 5.2 0.00 0.00 0.00 79 1011.0
20260904010241 82 154 2.6 5.2 0.00 0.00 0.00 79 1010.9
20260904005740 82 152 2.6 6.1 0.00 0.00 0.00 78 1011.0
20260904004739 82 149 3.5 7.8 0.00 0.00 0.00 77 1011.1
20260904004240 83 153 3.5 7.8 0.00 0.00 0.00 77 1011.1
20260904003741 83 154 2.6 5.2 0.00 0.00 0.00 77 1011.1
20260904003239 83 153 2.6 7.0 0.00 0.00 0.00 76 1011.2
20260904002740 84 151 3.5 7.0 0.00 0.00 0.00 75 1011.3
20260904002241 84 152 4.3 7.8 0.00 0.00 0.00 74 1011.2
20260904001741 84 153 4.3 8.7 0.00 0.00 0.00 74 1011.2
20260904001240 84 155 4.3 8.7 0.00 0.00 0.00 73 1011.1
20260904000241 85 153 4.3 7.8 0.00 0.00 0.00 71 1011.1
20260903235740 85 151 5.2 8.7 0.00 0.00 0.00 71 1011.1
20260903235239 85 151 5.2 8.7 0.00 0.00 0.00 70 1011.0
20260903234740 86 152 4.3 7.8 0.00 0.00 0.00 69 1011.0
20260903234240 86 154 4.3 8.7 0.00 0.00 0.00 68 1011.1
20260903233740 86 152 5.2 8.7 0.00 0.00 0.00 67 1011.0
20260903233241 86 152 5.2 9.6 0.00 0.00 0.00 68 1011.0
20260903232242 86 152 6.1 8.7 0.00 0.00 0.00 66 1010.9
20260903231740 87 149 5.2 8.7 0.00 0.00 0.00 64 1011.0
20260903231240 86 145 5.2 7.8 0.00 0.00 0.00 65 1010.8
20260903230739 87 142 4.3 7.0 0.00 0.00 0.00 64 1010.8
20260903225741 88 141 4.3 7.8 0.00 0.00 0.00 63 1010.8
20260903225239 88 139 5.2 8.7 0.00 0.00 0.00 63 1010.8
20260903224740 88 145 5.2 8.7 0.00 0.00 0.00 62 1010.7
20260903224240 87 151 5.2 8.7 0.00 0.00 0.00 63 1010.7
20260903223740 87 146 5.2 7.8 0.00 0.00 0.00 63 1010.7
20260903223240 87 144 4.3 7.8 0.00 0.00 0.00 64 1010.7
20260903222740 87 148 4.3 7.8 0.00 0.00 0.00 65 1010.7
20260903222240 86 150 4.3 7.8 0.00 0.00 0.00 66 1010.8
20260903221740 86 145 4.3 7.8 0.00 0.00 0.00 67 1010.7
20260903221240 86 142 5.2 8.7 0.00 0.00 0.00 68 1010.8
20260903220740 86 146 4.3 8.7 0.00 0.00 0.00 68 1010.8
20260903220241 87 150 4.3 8.7 0.00 0.00 0.00 67 1010.8
20260903215739 87 145 4.3 8.7 0.00 0.00 0.00 67 1010.8
20260903215240 88 144 4.3 8.7 0.00 0.00 0.00 66 1010.7
20260903214740 88 150 4.3 8.7 0.00 0.00 0.00 66 1010.8
20260903214241 89 152 3.5 7.0 0.00 0.00 0.00 64 1010.7
20260903213740 90 152 3.5 7.0 0.00 0.00 0.00 63 1010.7
20260903213239 90 151 4.3 8.7 0.00 0.00 0.00 62 1010.6
20260903212742 90 151 4.3 8.7 0.00 0.00 0.00 61 1010.8
20260903212239 90 147 4.3 8.7 0.00 0.00 0.00 61 1010.8
20260903210740 91 156 3.5 7.0 0.00 0.00 0.00 60 1010.8
20260903210240 91 159 3.5 7.8 0.00 0.00 0.00 60 1010.9
20260903205740 90 160 3.5 7.8 0.00 0.00 0.00 61 1010.8
20260903205240 90 161 3.5 7.8 0.00 0.00 0.00 62 1011.0
20260903204741 90 165 3.5 7.8 0.00 0.00 0.00 62 1011.0
20260903203740 90 160 3.5 8.7 0.00 0.00 0.00 62 1011.3
20260903203240 90 156 4.3 8.7 0.00 0.00 0.00 63 1011.3
20260903202741 90 160 3.5 9.6 0.00 0.00 0.00 63 1011.4
20260903202241 90 169 3.5 9.6 0.00 0.00 0.00 63 1011.5
20260903201740 90 162 3.5 7.8 0.00 0.00 0.00 63 1011.5
20260903201241 90 159 3.5 7.8 0.00 0.00 0.00 63 1011.6
20260903200740 90 164 3.5 7.8 0.00 0.00 0.00 63 1011.6
20260903200240 91 166 3.5 6.1 0.00 0.00 0.00 62 1011.7
20260903195740 91 168 3.5 8.7 0.00 0.00 0.00 62 1011.7
20260903195241 90 164 4.3 8.7 0.00 0.00 0.00 64 1011.7
20260903194740 90 157 4.3 8.7 0.00 0.00 0.00 64 1011.8
20260903194240 90 155 3.5 7.8 0.00 0.00 0.00 65 1011.9
20260903193741 89 153 4.3 7.8 0.00 0.00 0.00 66 1012.0
20260903193240 89 154 3.5 7.8 0.00 0.00 0.00 67 1012.0
20260903192740 89 149 4.3 7.8 0.00 0.00 0.00 68 1012.2
20260903192242 88 148 4.3 7.8 0.00 0.00 0.00 70 1012.2
20260903191740 88 155 4.3 7.8 0.00 0.00 0.00 69 1012.4
20260903191240 88 156 4.3 8.7 0.00 0.00 0.00 71 1012.5
20260903190740 87 152 4.3 9.6 0.00 0.00 0.00 72 1012.7
20260903190240 86 151 4.3 9.6 0.00 0.00 0.00 74 1012.9
20260903185740 86 151 4.3 9.6 0.00 0.00 0.00 74 1012.9
20260903184240 84 148 4.3 7.8 0.00 0.00 0.00 77 1013.3
20260903183740 84 150 4.3 8.7 0.00 0.00 0.00 78 1013.3
20260903183240 84 150 5.2 8.7 0.00 0.00 0.00 79 1013.3
20260903182740 84 153 5.2 9.6 0.00 0.00 0.00 79 1013.5
20260903182241 84 150 5.2 9.6 0.00 0.00 0.00 78 1013.5